FW0810 Weather Reports


time (UTC)temp
C
wind
direction
speed
KPH
gust
KPH
rain 1hr
cm
rain 24hr
cm
rain mn
cm
humidity
%
barometer
mb
20260905131835 35 288 1.6 16.1 0.00 0.00 0.00 33 1020.8
20260905131331 35 228 3.2 14.5 0.00 0.00 0.00 33 1020.9
20260905130325 35 278 1.6 14.5 0.00 0.00 0.00 32 1021.1
20260905125825 35 295 1.6 12.9 0.00 0.00 0.00 31 1021.0
20260905125325 35 294 3.2 12.9 0.00 0.00 0.00 31 1021.1
20260905124325 35 207 0.0 9.7 0.00 0.00 0.00 33 1021.2
20260905123825 35 272 1.6 11.3 0.00 0.00 0.00 35 1021.3
20260905123322 35 194 1.6 11.3 0.00 0.00 0.00 34 1021.3
20260905122323 35 273 0.0 8.0 0.00 0.00 0.00 35 1021.4
20260905121823 35 296 0.0 6.4 0.00 0.00 0.00 35 1021.5
20260905121323 34 190 1.6 8.0 0.00 0.00 0.00 37 1021.6
20260905120824 34 275 3.2 12.9 0.00 0.00 0.00 38 1021.6
20260905120322 34 283 3.2 12.9 0.00 0.00 0.00 37 1021.6
20260905115823 35 300 1.6 11.3 0.00 0.00 0.00 37 1021.7
20260905115322 34 281 0.0 8.0 0.00 0.00 0.00 38 1021.7
20260905114816 34 156 1.6 16.1 0.00 0.00 0.00 38 1021.8
20260905113828 34 295 1.6 14.5 0.00 0.00 0.00 38 1021.7
20260905113315 34 294 1.6 14.5 0.00 0.00 0.00 38 1021.8
20260905112815 34 266 1.6 9.7 0.00 0.00 0.00 38 1021.8
20260905112312 34 276 1.6 9.7 0.00 0.00 0.00 38 1021.8
20260905111813 34 284 1.6 11.3 0.00 0.00 0.00 39 1021.9
20260905111312 33 312 1.6 11.3 0.00 0.00 0.00 38 1021.8
20260905110810 33 259 1.6 12.9 0.00 0.00 0.00 38 1021.8
20260905110311 33 284 3.2 12.9 0.00 0.00 0.00 37 1021.9
20260905105810 34 285 1.6 11.3 0.00 0.00 0.00 36 1021.8
20260905105311 34 350 0.0 8.0 0.00 0.00 0.00 36 1021.8
20260905104815 33 201 0.0 4.8 0.00 0.00 0.00 35 1021.8
20260905103807 33 286 3.2 9.7 0.00 0.00 0.00 36 1021.9
20260905102805 33 289 1.6 17.7 0.00 0.00 0.00 37 1021.9
20260905102306 32 296 3.2 12.9 0.00 0.00 0.00 38 1021.9
20260905101807 32 332 3.2 12.9 0.00 0.00 0.00 39 1021.9
20260905101305 32 269 1.6 12.9 0.00 0.00 0.00 39 1022.0
20260905100804 32 293 1.6 11.3 0.00 0.00 0.00 41 1022.0
20260905100305 32 283 3.2 16.1 0.00 0.00 0.00 41 1022.2
20260905095805 32 278 1.6 16.1 0.00 0.00 0.00 39 1022.2
20260905095306 32 239 1.6 14.5 0.00 0.00 0.00 42 1022.2
20260905094804 32 288 0.0 4.8 0.00 0.00 0.00 45 1022.3
20260905094304 31 126 0.0 1.6 0.00 0.00 0.00 46 1022.3
20260905093804 31 127 0.0 6.4 0.00 0.00 0.00 49 1022.3
20260905092805 30 119 0.0 6.4 0.00 0.00 0.00 51 1022.3
20260905092306 30 117 0.0 4.8 0.00 0.00 0.00 52 1022.3
20260905091802 30 118 1.6 4.8 0.00 0.00 0.00 52 1022.2
20260905091302 29 115 0.0 3.2 0.00 0.00 0.00 53 1022.2
20260905090800 29 88 0.0 6.4 0.00 0.00 0.00 53 1022.2
20260905090300 29 85 0.0 6.4 0.00 0.00 0.00 54 1022.2
20260905085758 28 111 0.0 1.6 0.00 0.00 0.00 54 1022.1
20260905085258 28 110 0.0 3.2 0.00 0.00 0.00 54 1022.2
20260905084758 28 110 0.0 8.0 0.00 0.00 0.00 55 1022.2
20260905084252 28 110 0.0 8.0 0.00 0.00 0.00 56 1022.3
20260905083745 27 115 0.0 4.8 0.00 0.00 0.00 56 1022.3
20260905083239 27 112 0.0 3.2 0.00 0.00 0.00 57 1022.2
20260905082736 27 111 0.0 3.2 0.00 0.00 0.00 57 1022.3
20260905082226 27 108 0.0 3.2 0.00 0.00 0.00 60 1022.3
20260905081214 26 139 0.0 3.2 0.00 0.00 0.00 60 1022.4
20260905080713 26 107 0.0 1.6 0.00 0.00 0.00 62 1022.4
20260905075658 25 98 1.6 6.4 0.00 0.00 0.00 62 1022.5
20260905075153 25 108 1.6 6.4 0.00 0.00 0.00 63 1022.6
20260905074138 25 139 0.0 4.8 0.00 0.00 0.00 64 1022.6
20260905073632 25 144 0.0 4.8 0.00 0.00 0.00 65 1022.7
20260905072114 24 141 0.0 4.8 0.00 0.00 0.00 66 1022.6
20260905071608 24 158 0.0 4.8 0.00 0.00 0.00 67 1022.5
20260905070613 23 221 0.0 1.6 0.00 0.00 0.00 69 1022.4
20260905070107 23 221 0.0 0.0 0.00 0.00 0.00 69 1022.3
20260905065559 23 257 0.0 0.0 0.00 0.00 0.00 71 1022.3
20260905064055 22 262 0.0 0.0 0.00 0.00 0.00 72 1022.4
20260905063553 22 262 0.0 0.0 0.00 0.00 0.00 73 1022.4
20260905063050 21 271 0.0 0.0 0.00 0.00 0.00 76 1022.5
20260905062046 20 271 0.0 0.0 0.00 0.00 0.00 80 1022.4
20260905061547 19 271 0.0 0.0 0.00 0.00 0.00 80 1022.5
20260905061046 19 271 0.0 0.0 0.00 0.00 0.00 82 1022.6
20260905060546 18 271 0.0 0.0 0.00 0.00 0.00 82 1022.7
20260905055547 18 270 0.0 0.0 0.00 0.00 0.00 83 1022.6
20260905055046 18 269 0.0 0.0 0.00 0.00 0.00 84 1022.5
20260905054545 17 269 0.0 0.0 0.00 0.00 0.00 85 1022.5
20260905054046 17 269 0.0 0.0 0.00 0.00 0.00 84 1022.6
20260905053542 17 269 0.0 1.6 0.00 0.00 0.00 85 1022.7
20260905051036 16 269 0.0 0.0 0.00 0.00 0.00 86 1022.5
20260905050037 16 269 0.0 0.0 0.00 0.00 0.00 85 1022.4
20260905045536 16 269 0.0 0.0 0.00 0.00 0.00 84 1022.5
20260905045036 16 269 0.0 0.0 0.00 0.00 0.00 85 1022.5
20260905044035 16 269 0.0 0.0 0.00 0.00 0.00 84 1022.4
20260905043533 16 269 0.0 0.0 0.00 0.00 0.00 84 1022.3
20260905043032 17 269 0.0 0.0 0.00 0.00 0.00 84 1022.3
20260905042532 17 269 0.0 0.0 0.00 0.00 0.00 84 1022.2
20260905041533 16 269 0.0 1.6 0.00 0.00 0.00 84 1022.1
20260905041033 16 269 0.0 1.6 0.00 0.00 0.00 84 1022.0
20260905040532 17 269 0.0 0.0 0.00 0.00 0.00 84 1022.0
20260905040028 17 271 0.0 1.6 0.00 0.00 0.00 84 1022.1
20260905035528 17 271 0.0 1.6 0.00 0.00 0.00 84 1022.1
20260905035029 17 271 0.0 0.0 0.00 0.00 0.00 84 1021.8
20260905033033 17 271 0.0 0.0 0.00 0.00 0.00 83 1022.0
20260905032528 17 271 0.0 0.0 0.00 0.00 0.00 83 1021.9
20260905032027 17 271 0.0 0.0 0.00 0.00 0.00 83 1021.8
20260905031521 17 271 0.0 0.0 0.00 0.00 0.00 83 1021.9
20260905031016 17 274 0.0 0.0 0.00 0.00 0.00 82 1021.9
20260905030016 17 274 0.0 0.0 0.00 0.00 0.00 82 1021.9
20260905025457 17 274 0.0 0.0 0.00 0.00 0.00 82 1021.9
20260905024953 17 274 0.0 0.0 0.00 0.00 0.00 82 1022.0
20260905024445 17 274 0.0 0.0 0.00 0.00 0.00 82 1022.0
20260905023432 17 273 0.0 0.0 0.00 0.00 0.00 81 1022.0
20260905022928 18 272 0.0 0.0 0.00 0.00 0.00 81 1022.0
20260905021916 18 269 0.0 0.0 0.00 0.00 0.00 81 1022.1
20260905021411 18 269 0.0 0.0 0.00 0.00 0.00 81 1022.1
20260905020902 18 269 0.0 0.0 0.00 0.00 0.00 81 1022.2
20260905020400 18 269 0.0 0.0 0.00 0.00 0.00 81 1022.2
20260905015852 18 269 0.0 0.0 0.00 0.00 0.00 81 1022.3
20260905015345 18 269 0.0 0.0 0.00 0.00 0.00 81 1022.4
20260905014845 18 269 0.0 6.4 0.00 0.00 0.00 80 1022.3
20260905014341 18 269 0.0 6.4 0.00 0.00 0.00 80 1022.4
20260905013842 18 266 0.0 0.0 0.00 0.00 0.00 79 1022.4
20260905013343 18 264 0.0 6.4 0.00 0.00 0.00 79 1022.3
20260905012839 18 275 0.0 6.4 0.00 0.00 0.00 79 1022.3
20260905012339 18 269 0.0 3.2 0.00 0.00 0.00 78 1022.2
20260905011836 18 264 0.0 0.0 0.00 0.00 0.00 78 1022.3
20260905011333 18 264 0.0 0.0 0.00 0.00 0.00 78 1022.2
20260905010330 19 264 0.0 0.0 0.00 0.00 0.00 78 1022.2
20260905005827 19 264 0.0 0.0 0.00 0.00 0.00 77 1022.3
20260905005330 19 264 0.0 0.0 0.00 0.00 0.00 77 1022.3
20260905004827 19 264 0.0 0.0 0.00 0.00 0.00 77 1022.3
20260905004327 19 264 0.0 0.0 0.00 0.00 0.00 77 1022.4
20260905002825 20 264 0.0 0.0 0.00 0.00 0.00 76 1022.4
20260905002325 20 264 0.0 1.6 0.00 0.00 0.00 77 1022.5
20260905001827 20 264 0.0 3.2 0.00 0.00 0.00 77 1022.5
20260905000822 19 266 0.0 6.4 0.00 0.00 0.00 76 1022.4
20260904235822 20 273 1.6 8.0 0.00 0.00 0.00 75 1022.6
20260904235322 20 264 0.0 8.0 0.00 0.00 0.00 74 1022.7
20260904233315 20 270 0.0 1.6 0.00 0.00 0.00 73 1022.6
20260904232313 20 269 0.0 0.0 0.00 0.00 0.00 73 1022.7
20260904230806 21 274 0.0 3.2 0.00 0.00 0.00 71 1022.8
20260904230318 21 274 0.0 3.2 0.00 0.00 0.00 71 1022.9
20260904225805 21 272 0.0 0.0 0.00 0.00 0.00 70 1023.0
20260904225306 21 272 0.0 0.0 0.00 0.00 0.00 69 1023.0
20260904224301 21 272 0.0 0.0 0.00 0.00 0.00 68 1022.8
20260904223802 22 272 0.0 0.0 0.00 0.00 0.00 68 1022.8
20260904223303 22 271 0.0 0.0 0.00 0.00 0.00 68 1022.8
20260904222801 22 271 0.0 4.8 0.00 0.00 0.00 68 1022.8
20260904222254 22 271 0.0 4.8 0.00 0.00 0.00 68 1022.8
20260904221749 22 273 0.0 1.6 0.00 0.00 0.00 67 1022.9
20260904220740 22 283 0.0 6.4 0.00 0.00 0.00 66 1022.8
20260904220231 22 274 0.0 6.4 0.00 0.00 0.00 65 1022.7
20260904215728 22 269 0.0 0.0 0.00 0.00 0.00 65 1022.8
20260904215218 22 269 0.0 3.2 0.00 0.00 0.00 65 1022.7
20260904214713 22 269 0.0 3.2 0.00 0.00 0.00 65 1022.7
20260904214206 22 271 0.0 0.0 0.00 0.00 0.00 65 1022.7
20260904213700 22 271 0.0 4.8 0.00 0.00 0.00 65 1022.5
20260904213156 23 271 0.0 4.8 0.00 0.00 0.00 64 1022.6
20260904212649 23 269 0.0 3.2 0.00 0.00 0.00 64 1022.5
20260904212145 23 276 0.0 0.0 0.00 0.00 0.00 63 1022.5
20260904211640 23 276 0.0 3.2 0.00 0.00 0.00 63 1022.5
20260904211131 23 278 0.0 3.2 0.00 0.00 0.00 62 1022.5
20260904210640 23 275 0.0 3.2 0.00 0.00 0.00 62 1022.5
20260904210121 23 285 0.0 3.2 0.00 0.00 0.00 61 1022.5
20260904205618 24 276 0.0 0.0 0.00 0.00 0.00 60 1022.5
20260904205118 24 276 0.0 0.0 0.00 0.00 0.00 60 1022.5
20260904204616 24 276 0.0 0.0 0.00 0.00 0.00 59 1022.5
20260904204113 24 276 0.0 0.0 0.00 0.00 0.00 59 1022.5
20260904203113 24 276 0.0 0.0 0.00 0.00 0.00 59 1022.5
20260904202614 24 276 0.0 1.6 0.00 0.00 0.00 59 1022.4
20260904201612 25 282 0.0 3.2 0.00 0.00 0.00 58 1022.4
20260904200610 25 271 0.0 3.2 0.00 0.00 0.00 56 1022.3
20260904195609 25 271 0.0 4.8 0.00 0.00 0.00 56 1022.3
20260904195105 25 274 0.0 4.8 0.00 0.00 0.00 56 1022.3
20260904194101 25 278 0.0 3.2 0.00 0.00 0.00 55 1022.3
20260904193100 25 276 0.0 3.2 0.00 0.00 0.00 54 1022.2
20260904192559 26 276 0.0 3.2 0.00 0.00 0.00 54 1022.2
20260904191549 26 274 0.0 3.2 0.00 0.00 0.00 52 1022.0
20260904191041 26 274 0.0 3.2 0.00 0.00 0.00 51 1021.9
20260904190536 27 271 0.0 1.6 0.00 0.00 0.00 49 1021.9
20260904190032 27 274 0.0 1.6 0.00 0.00 0.00 48 1021.8
20260904185523 28 273 0.0 0.0 0.00 0.00 0.00 47 1021.8
20260904185017 28 273 0.0 0.0 0.00 0.00 0.00 47 1021.7
20260904184512 28 273 0.0 0.0 0.00 0.00 0.00 46 1021.6
20260904183501 29 277 0.0 1.6 0.00 0.00 0.00 45 1021.5
20260904182957 29 278 0.0 1.6 0.00 0.00 0.00 45 1021.4
20260904181941 30 294 0.0 0.0 0.00 0.00 0.00 42 1021.4
20260904181435 30 301 0.0 0.0 0.00 0.00 0.00 41 1021.4
20260904180931 30 308 0.0 0.0 0.00 0.00 0.00 41 1021.3
20260904180422 30 314 0.0 0.0 0.00 0.00 0.00 40 1021.1
20260904175917 30 275 0.0 0.0 0.00 0.00 0.00 39 1021.1
20260904175413 31 273 0.0 0.0 0.00 0.00 0.00 37 1021.1
20260904174903 31 273 0.0 0.0 0.00 0.00 0.00 36 1021.0
20260904174359 31 273 0.0 0.0 0.00 0.00 0.00 35 1020.9
20260904173852 32 273 0.0 0.0 0.00 0.00 0.00 33 1020.9
20260904173345 32 272 0.0 0.0 0.00 0.00 0.00 32 1020.9
20260904172839 33 271 0.0 0.0 0.00 0.00 0.00 31 1020.8
20260904172349 34 271 0.0 0.0 0.00 0.00 0.00 29 1020.8
20260904171828 34 271 0.0 0.0 0.00 0.00 0.00 29 1020.8
20260904171321 35 271 0.0 0.0 0.00 0.00 0.00 27 1020.8
20260904170816 35 271 0.0 0.0 0.00 0.00 0.00 27 1020.8
20260904170309 35 272 0.0 0.0 0.00 0.00 0.00 26 1020.9
20260904165803 35 271 0.0 0.0 0.00 0.00 0.00 26 1020.9
20260904165259 36 271 0.0 1.6 0.00 0.00 0.00 25 1020.9
20260904164751 36 271 0.0 1.6 0.00 0.00 0.00 25 1020.8
20260904164245 36 268 0.0 1.6 0.00 0.00 0.00 26 1020.9
20260904163745 36 265 0.0 6.4 0.00 0.00 0.00 25 1020.9
20260904163245 36 283 0.0 6.4 0.00 0.00 0.00 25 1020.8
20260904162745 36 288 0.0 8.0 0.00 0.00 0.00 25 1020.8
20260904162245 36 279 0.0 8.0 0.00 0.00 0.00 25 1020.9
20260904161746 36 261 0.0 4.8 0.00 0.00 0.00 25 1020.8
20260904161245 36 290 0.0 6.4 0.00 0.00 0.00 25 1020.8
20260904160743 36 278 0.0 6.4 0.00 0.00 0.00 24 1020.9
20260904160242 36 274 0.0 3.2 0.00 0.00 0.00 25 1020.9
20260904155742 36 274 0.0 6.4 0.00 0.00 0.00 25 1020.9
20260904155239 36 274 0.0 6.4 0.00 0.00 0.00 24 1020.9
20260904154739 36 274 0.0 6.4 0.00 0.00 0.00 25 1021.0
20260904153735 36 251 0.0 4.8 0.00 0.00 0.00 24 1021.0
20260904153236 36 205 0.0 4.8 0.00 0.00 0.00 24 1021.1
20260904152738 36 269 1.6 6.4 0.00 0.00 0.00 22 1021.2
20260904152235 36 274 1.6 9.7 0.00 0.00 0.00 22 1021.2
20260904151233 36 298 1.6 9.7 0.00 0.00 0.00 23 1021.2
20260904150732 36 281 1.6 11.3 0.00 0.00 0.00 23 1021.2
20260904150235 36 340 1.6 11.3 0.00 0.00 0.00 23 1021.2
20260904145733 36 284 0.0 6.4 0.00 0.00 0.00 23 1021.2
20260904145233 36 280 0.0 6.4 0.00 0.00 0.00 23 1021.3
20260904144733 36 289 1.6 11.3 0.00 0.00 0.00 23 1021.2
20260904144234 36 296 1.6 14.5 0.00 0.00 0.00 24 1021.2
20260904143733 36 290 1.6 14.5 0.00 0.00 0.00 24 1021.2
20260904143233 36 279 3.2 14.5 0.00 0.00 0.00 24 1021.3
20260904142730 36 205 1.6 14.5 0.00 0.00 0.00 24 1021.2
20260904142228 36 317 1.6 11.3 0.00 0.00 0.00 24 1021.3
20260904141730 36 269 1.6 11.3 0.00 0.00 0.00 24 1021.3
20260904141231 36 279 0.0 3.2 0.00 0.00 0.00 25 1021.3
20260904140730 36 264 0.0 8.0 0.00 0.00 0.00 25 1021.3
20260904140228 36 308 1.6 9.7 0.00 0.00 0.00 25 1021.3
20260904135730 36 202 1.6 12.9 0.00 0.00 0.00 24 1021.5
20260904135228 36 276 1.6 12.9 0.00 0.00 0.00 25 1021.5
20260904134731 36 299 3.2 16.1 0.00 0.00 0.00 25 1021.6
20260904134229 36 272 1.6 16.1 0.00 0.00 0.00 25 1021.7
20260904133731 36 352 1.6 16.1 0.00 0.00 0.00 26 1021.6
20260904132729 36 271 1.6 12.9 0.00 0.00 0.00 27 1021.7